[[{"header":{"parameterUnit":"m.s-1","parameterCategory":2,"la1":30.2991,"la2":30.254,"lo1":-89.0895,"lo2":-89.0444,"dy":0.0017,"dx":0.0017,"nx":28,"ny":28,"refTime":"2024-06-25T03:00:00:Z","depth":"0","parameterNumber":2,"parameterNumberName":"U-component_of_CURRENTS"},"data":[0,0,0,0,0,0,0,0,0,0,0,0,0,0,0,0,0,0,0,0,0,0,0,0,0,0,0,0,0,0,0,0,0,0,0,0,0,0,0,0,0,0,0,0,0,0,0,0,0,0,0,0,0,0,0,0,0,0,0.154,0.1541,0,0.1609,0.161,0.161,0.1626,0.1626,0.1626,0.1625,0.1591,0.1591,0.159,0,0,0,0,0,0,0,0,0,0,0,0,0,0.1385,0.1388,0.154,0.1541,0.1542,0.1609,0.161,0.161,0.1626,0.1626,0.1626,0.1625,0.1592,0.1591,0.159,0,0,0,0,0,0,0,0,0,0,0,0,0,0.1451,0.1388,0.154,0.1559,0.1562,0.1609,0.161,0.1611,0.1627,0.1626,0.1625,0.1625,0.1592,0.1591,0.159,0.1595,0,0,0.1588,0.1587,0,0,0,0,0,0,0,0,0.1448,0.1457,0.1555,0.1558,0.1561,0.161,0.1542,0.1601,0.1627,0.16,0.1625,0.1625,0.1589,0.1589,0.1602,0.1594,0.1592,0.1587,0.1587,0.1587,0.1586,0,0,0,0,0,0,0,0.1443,0.1454,0.1566,0.1556,0.156,0.1551,0.156,0.1554,0.1594,0.1603,0.1604,0.1614,0.159,0.1603,0.1601,0.1592,0.1587,0.1587,0.1586,0.1586,0.1518,0.1517,0,0,0,0,0,0,0.1441,0.145,0.1564,0.1568,0.1503,0.1555,0.1565,0.1593,0.1596,0.1598,0.1615,0.1615,0.1605,0.1602,0.16,0.1567,0.1587,0.1586,0.1585,0.1519,0.1518,0.1516,0,0,0,0,0,0,0.1437,0.1451,0.1561,0.151,0.1524,0.1558,0.159,0.1595,0.1604,0.1607,0.1606,0.1617,0.1604,0.1601,0.1584,0.1567,0.1585,0.1585,0.1521,0.1519,0.1517,0.1525,0,0,0,0,0,0,0.1433,0.145,0.1472,0.1511,0.1527,0.158,0.1591,0.1597,0.1611,0.1612,0.1609,0.1606,0.1604,0.1585,0.1583,0.1566,0.1584,0.1522,0.152,0.1518,0.1526,0.1523,0.1521,0,0,0,0,0,0.1427,0.1465,0.1473,0.1486,0.1556,0.158,0.1587,0.1608,0.1612,0.1614,0.1608,0.1606,0.1567,0.1584,0.1581,0.1564,0.1524,0.1521,0.1518,0.1527,0.1524,0.1521,0,0,0,0,0,0,0.1411,0.1472,0.1481,0.1535,0.1549,0.1583,0.1602,0.1605,0.1607,0.1607,0.1601,0.1598,0.1576,0.1564,0.1582,0.1533,0.154,0.1536,0.1548,0.1544,0.1542,0.1599,0.1583,0,0,0,0,0,0.1417,0.1463,0.1495,0.1536,0.1548,0.157,0.1585,0.1591,0.16,0.1602,0.1594,0.1579,0.1564,0.155,0.154,0.1517,0.1614,0.1498,0.1495,0.1493,0.1535,0.1683,0.17,0.1507,0.1507,0.1507,0,0,0.1423,0.1462,0.1487,0.1535,0.1556,0.1559,0.1578,0.1599,0.159,0.1595,0.1582,0.1576,0.1557,0.1536,0.1522,0.1522,0.1595,0.149,0.1488,0.1533,0.1682,0.1702,0.172,0.1505,0.1505,0.1506,0,0,0.1443,0.1489,0.1522,0.1528,0.1555,0.1562,0.1562,0.1581,0.1583,0.157,0.1568,0.1568,0.1528,0.1531,0.1521,0.1498,0.1583,0.1462,0.1492,0.1633,0.1653,0.1672,0.182,0.1852,0.1453,0.1453,0.1453,0,0.1438,0.1487,0.1528,0.1541,0.1546,0.1556,0.1557,0.1558,0.1561,0.158,0.1559,0.157,0.1538,0.1552,0.1527,0.1499,0.1603,0.1508,0.1639,0.1659,0.1678,0.1827,0.1862,0.1453,0.1453,0.1453,0.1453,0,0.1472,0.1492,0.1509,0.1528,0.1536,0.1541,0.1541,0.1546,0.1544,0.1558,0.1583,0.1572,0.1602,0.1553,0.1526,0.1613,0.1654,0.1633,0.1666,0.17,0.1851,0.1888,0.1453,0.1453,0.1453,0.1453,0,0,0.1494,0.1525,0.1524,0.1527,0.1527,0.1539,0.1532,0.1552,0.1598,0.1582,0.1666,0.1604,0.1653,0.1647,0.1627,0.1706,0.1895,0.1719,0.1726,0.1902,0.2245,0.2254,0.2295,0.1914,0.192,0.1925,0.23,0,0.1495,0.1513,0.1526,0.152,0.1528,0.1532,0.1541,0.1561,0.1595,0.1678,0.1694,0.1762,0.167,0.1721,0.1781,0.1881,0.1993,0.1798,0.2157,0.2169,0.2201,0.2338,0.2277,0.2604,0.2336,0.2343,0.2347,0,0.152,0.1526,0.1528,0.1544,0.1552,0.1544,0.1606,0.1619,0.1721,0.1775,0.1858,0.1912,0.2017,0.1953,0.2181,0.2071,0.2173,0.2237,0.2254,0.2297,0.2247,0.2523,0.2682,0.2554,0.2404,0.24,0.2396,0,0.1534,0.1531,0.1535,0.1531,0.1547,0.1559,0.1574,0.1652,0.1728,0.1883,0.2002,0.2115,0.2244,0.2364,0.2464,0.2371,0.2754,0.2651,0.2764,0.2766,0.2805,0.2799,0.2917,0.2872,0.2871,0.287,0.2869,0,0.1544,0.1547,0.154,0.154,0.1565,0.1579,0.1663,0.1705,0.1859,0.2004,0.2075,0.2253,0.2365,0.2563,0.2608,0.283,0.2894,0.2845,0.2888,0.2798,0.2788,0.2746,0.2646,0.2884,0.2881,0.2878,0.2876,0,0.158,0.1563,0.1572,0.1573,0.1574,0.1601,0.1702,0.1808,0.1927,0.2142,0.2222,0.2451,0.2717,0.2824,0.3081,0.3061,0.316,0.3289,0.3175,0.3196,0.3111,0.3013,0.3138,0.3062,0.3498,0.35,0.3503,0,0.1619,0.1634,0.1603,0.162,0.1618,0.1667,0.1739,0.1834,0.1974,0.2264,0.2404,0.2716,0.2928,0.3295,0.3372,0.3546,0.3351,0.3561,0.3341,0.317,0.3095,0.2897,0.2806,0.3409,0.341,0.3411,0.3412,0,0.1719,0.1697,0.1686,0.1731,0.1767,0.1815,0.1917,0.202,0.2194,0.2371,0.267,0.2859,0.321,0.338,0.3582,0.3646,0.3371,0.3589,0.3466,0.3107,0.2855,0.2779,0.3089,0.3423,0.3422,0.3421,0.342,0.342,0.1821,0.1835,0.1855,0.189,0.1918,0.1995,0.205,0.2191,0.238,0.2631,0.2815,0.3044,0.3272,0.3553,0.3595,0.3583,0.3492,0.3473,0.3403,0.3244,0.3052,0.3384,0.3702,0.3702,0.3703,0.3703,0.3703,0,0.202,0.2028,0.2059,0.2082,0.2129,0.2111,0.2221,0.2288,0.2476,0.2678,0.2899,0.3111,0.3285,0.3394,0.3469,0.3376,0.32,0.3298,0.2989,0.2933,0.3322,0.3191,0.3346,0.3346,0.3346,0.3346,0.3346,0.3346,0.2143,0.2222,0.2214,0.2313,0.231,0.2369,0.2407,0.2461,0.2573,0.2723,0.2815,0.2926,0.3074,0.3242,0.3188,0.3129,0.2847,0.2801,0.2727,0.2953,0.296,0.2966,0.2819,0.2894,0.2893,0.2248,0.2243,0.2239]},{"header":{"parameterUnit":"m.s-1","parameterCategory":2,"la1":30.2991,"la2":30.254,"lo1":-89.0895,"lo2":-89.0444,"dy":0.0017,"dx":0.0017,"nx":28,"ny":28,"refTime":"2024-06-25T03:00:00:Z","depth":"0","parameterNumber":3,"parameterNumberName":"V-component_of_CURRENTS"},"data":[0,0,0,0,0,0,0,0,0,0,0,0,0,0,0,0,0,0,0,0,0,0,0,0,0,0,0,0,0,0,0,0,0,0,0,0,0,0,0,0,0,0,0,0,0,0,0,0,0,0,0,0,0,0,0,0,0,0,-0.0301,-0.0301,0,-0.0311,-0.0311,-0.0311,-0.0308,-0.0308,-0.0308,-0.0308,-0.0254,-0.0253,-0.0252,0,0,0,0,0,0,0,0,0,0,0,0,0,-0.0247,-0.0248,-0.0301,-0.0302,-0.0302,-0.0311,-0.0311,-0.0311,-0.0308,-0.0308,-0.0308,-0.0308,-0.0255,-0.0253,-0.0251,0,0,0,0,0,0,0,0,0,0,0,0,0,-0.0263,-0.0248,-0.0301,-0.0303,-0.0304,-0.0311,-0.0311,-0.0311,-0.0308,-0.0308,-0.0308,-0.0308,-0.0255,-0.0253,-0.0251,-0.0238,0,0,-0.0245,-0.0244,0,0,0,0,0,0,0,0,-0.0262,-0.0264,-0.0303,-0.0303,-0.0304,-0.031,-0.0272,-0.0284,-0.0308,-0.0304,-0.0308,-0.0308,-0.0269,-0.0265,-0.0265,-0.0235,-0.0233,-0.0244,-0.0243,-0.0242,-0.0242,0,0,0,0,0,0,0,-0.0261,-0.0264,-0.0303,-0.0303,-0.0304,-0.0292,-0.0295,-0.0274,-0.0283,-0.0304,-0.0304,-0.0309,-0.0268,-0.0267,-0.0263,-0.0232,-0.0245,-0.0243,-0.0241,-0.024,-0.0158,-0.0157,0,0,0,0,0,0,-0.0266,-0.0263,-0.0302,-0.0303,-0.0285,-0.0293,-0.0296,-0.0306,-0.0285,-0.0283,-0.0309,-0.0309,-0.0271,-0.0266,-0.0261,-0.0217,-0.0242,-0.024,-0.0239,-0.0159,-0.0157,-0.0156,0,0,0,0,0,0,-0.0265,-0.027,-0.0302,-0.0285,-0.0288,-0.0295,-0.0306,-0.0306,-0.0305,-0.029,-0.0286,-0.0308,-0.027,-0.0264,-0.0238,-0.0216,-0.0239,-0.0237,-0.016,-0.0158,-0.0157,-0.0146,0,0,0,0,0,0,-0.0264,-0.0269,-0.0276,-0.0285,-0.029,-0.0305,-0.0306,-0.0307,-0.0309,-0.0309,-0.0287,-0.0283,-0.027,-0.0241,-0.0236,-0.0214,-0.0236,-0.0161,-0.0159,-0.0157,-0.0148,-0.0145,-0.0142,0,0,0,0,0,-0.0262,-0.0274,-0.0276,-0.0281,-0.0299,-0.0306,-0.0306,-0.0309,-0.0309,-0.0308,-0.0289,-0.0283,-0.0226,-0.0239,-0.0233,-0.021,-0.0162,-0.016,-0.0158,-0.0149,-0.0145,-0.0142,0,0,0,0,0,0,-0.0257,-0.0276,-0.0278,-0.0296,-0.0299,-0.0306,-0.0311,-0.0309,-0.0295,-0.0294,-0.0275,-0.0269,-0.0237,-0.0225,-0.024,-0.018,-0.0191,-0.0188,-0.0187,-0.0183,-0.018,-0.0129,-0.0234,0,0,0,0,0,-0.0259,-0.0272,-0.0283,-0.0297,-0.03,-0.0303,-0.0306,-0.0307,-0.0299,-0.0295,-0.0277,-0.0253,-0.0224,-0.0206,-0.0186,-0.0154,-0.0128,-0.0133,-0.013,-0.0128,-0.0081,-0.0037,-0.0025,-0.015,-0.015,-0.015,0,0,-0.0264,-0.0274,-0.0283,-0.0296,-0.0301,-0.0289,-0.0305,-0.0311,-0.0283,-0.0289,-0.025,-0.0246,-0.0215,-0.018,-0.0163,-0.0166,-0.0088,-0.0125,-0.0124,-0.0077,-0.0033,-0.0021,-0.001,-0.0148,-0.0149,-0.0149,0,0,-0.0267,-0.0287,-0.0291,-0.0289,-0.0295,-0.0289,-0.0289,-0.0291,-0.0276,-0.0251,-0.0238,-0.0212,-0.0185,-0.0145,-0.0123,-0.0087,-0.0079,-0.0095,-0.0031,0.001,0.0021,0.0032,0.0042,0.0054,-0.0088,-0.0088,-0.0088,0,-0.0267,-0.0266,-0.0292,-0.0283,-0.0265,-0.0284,-0.0258,-0.0249,-0.0236,-0.0194,-0.0235,-0.0153,-0.0155,-0.0062,-0.0062,-0.0076,-0.0064,-0.0052,0.0015,0.0026,0.0036,0.0045,0.0058,-0.0088,-0.0088,-0.0088,-0.0088,0,-0.0262,-0.0252,-0.0255,-0.0239,-0.0228,-0.0215,-0.02,-0.0171,-0.0165,-0.0143,-0.0074,-0.0078,-0.001,-0.0031,-0.004,0.0045,0.0023,0.0005,0.0006,0.005,0.0055,0.0068,-0.0086,-0.0087,-0.0087,-0.0087,0,0,-0.0257,-0.0249,-0.0242,-0.0201,-0.0193,-0.0168,-0.0121,-0.0054,0.0026,0.0006,0.0115,0.0113,0.0117,0.0144,0.0133,0.0151,0.019,0.0108,0.011,0.0121,0.0264,0.023,0.024,0.0177,0.018,0.0182,0.0224,0,-0.0226,-0.0184,-0.0189,-0.0115,-0.0077,-0.0057,0.001,0.0065,0.0105,0.0199,0.0201,0.0281,0.0182,0.0226,0.0225,0.0218,0.0232,0.018,0.0222,0.0224,0.0191,0.0258,0.0247,0.0284,0.0237,0.0239,0.024,0,-0.0188,-0.0159,-0.0093,0.0004,0.0025,0.0066,0.0213,0.0266,0.0371,0.0412,0.047,0.0477,0.0525,0.0426,0.0431,0.04,0.0347,0.0311,0.0311,0.0302,0.0218,0.0241,0.0309,0.0102,0.026,0.0259,0.0257,0,-0.0117,-0.0065,0.0004,0.0026,0.0106,0.0171,0.0228,0.0336,0.0449,0.0564,0.067,0.0683,0.0754,0.0672,0.057,0.0516,0.0563,0.0482,0.0404,0.0399,0.0417,0.0409,0.0304,0.0508,0.0508,0.0508,0.0508,0,-0.0047,0.0021,0.0044,0.0089,0.0213,0.0243,0.041,0.0477,0.0633,0.0814,0.079,0.0958,0.0825,0.0826,0.0666,0.0585,0.064,0.0456,0.0432,0.0413,0.0405,0.0248,0.017,0.0509,0.0509,0.0509,0.0508,0,0.0053,0.0049,0.0147,0.0221,0.0248,0.0348,0.0518,0.0671,0.078,0.1025,0.1085,0.1203,0.1209,0.1039,0.0946,0.0764,0.0557,0.0602,0.0569,0.054,0.0244,0.0169,0.015,0.0082,0.0528,0.0527,0.0527,0,0.0124,0.0174,0.0244,0.0316,0.0354,0.0488,0.0614,0.0734,0.0916,0.1203,0.136,0.1452,0.1565,0.1379,0.1066,0.0794,0.0617,0.0602,0.05,0.0265,0.0163,0.0106,0.0046,0.0507,0.0507,0.0507,0.0506,0,0.0289,0.0293,0.0364,0.0495,0.061,0.0755,0.0934,0.1092,0.1295,0.1497,0.1806,0.1915,0.1766,0.1538,0.1138,0.0921,0.0476,0.0588,0.0377,0.019,0.0098,0.0007,0.0407,0.0504,0.0504,0.0505,0.0505,0.0505,0.0435,0.0516,0.0606,0.0738,0.0862,0.1063,0.1212,0.1438,0.1719,0.2056,0.2117,0.2288,0.1889,0.137,0.1066,0.0444,0.049,0.0242,0.0185,0.0156,0.006,0.044,0.0483,0.0483,0.0483,0.0483,0.0483,0,0.0671,0.0745,0.0871,0.1031,0.1196,0.1211,0.1478,0.165,0.1984,0.2242,0.2469,0.2306,0.1828,0.1277,0.0468,0.0085,-0.0058,-0.0126,-0.0227,-0.026,0.0103,0.0063,-0.0021,-0.0021,-0.0021,-0.0021,-0.0021,-0.002,0.0817,0.0978,0.1021,0.1317,0.1424,0.1646,0.179,0.2033,0.2232,0.2515,0.257,0.2578,0.2075,0.0749,-0.014,-0.0325,-0.058,-0.0602,-0.0716,-0.0527,-0.0499,-0.0473,-0.0534,-0.0742,-0.0743,-0.107,-0.1074,-0.1076]}],[{"header":{"parameterUnit":"m.s-1","parameterCategory":2,"la1":30.2991,"la2":30.254,"lo1":-89.0895,"lo2":-89.0444,"dy":0.0017,"dx":0.0017,"nx":28,"ny":28,"refTime":"2024-06-25T03:00:00:Z","depth":"2","parameterNumber":2,"parameterNumberName":"U-component_of_CURRENTS"},"data":[0,0,0,0,0,0,0,0,0,0,0,0,0,0,0,0,0,0,0,0,0,0,0,0,0,0,0,0,0,0,0,0,0,0,0,0,0,0,0,0,0,0,0,0,0,0,0,0,0,0,0,0,0,0,0,0,0,0,0.0571,0.0573,0,0.0745,0.0747,0.075,0.0804,0.0803,0.0801,0.08,0.0982,0.0988,0.0994,0,0,0,0,0,0,0,0,0,0,0,0,0,0.0462,0.0463,0.0571,0.0573,0.0574,0.0744,0.0747,0.075,0.0805,0.0803,0.0801,0.0799,0.098,0.0988,0.0995,0,0,0,0,0,0,0,0,0,0,0,0,0,0.0566,0.0464,0.0571,0.0617,0.0622,0.0744,0.0747,0.0751,0.0805,0.0803,0.0801,0.0799,0.0978,0.0987,0.0996,0.1097,0,0,0.1024,0.1028,0,0,0,0,0,0,0,0,0.056,0.0571,0.0609,0.0614,0.062,0.0745,0.0775,0.0865,0.0806,0.0743,0.08,0.0798,0.0901,0.0916,0.0963,0.1105,0.1113,0.1025,0.1031,0.1035,0.1038,0,0,0,0,0,0,0,0.0552,0.0565,0.0647,0.061,0.0617,0.0688,0.07,0.0794,0.0837,0.0748,0.0751,0.076,0.0905,0.0954,0.0968,0.1116,0.1025,0.1033,0.1039,0.1043,0.1229,0.1229,0,0,0,0,0,0,0.0511,0.0557,0.0641,0.0651,0.0576,0.0691,0.0704,0.0712,0.0836,0.0851,0.0761,0.0762,0.094,0.0957,0.0974,0.1054,0.1035,0.1044,0.1049,0.123,0.1229,0.1228,0,0,0,0,0,0,0.0508,0.0517,0.0634,0.0603,0.0622,0.0693,0.0703,0.0717,0.0786,0.0845,0.0861,0.0817,0.0939,0.0961,0.1069,0.1063,0.1048,0.1056,0.1231,0.123,0.1229,0.1243,0,0,0,0,0,0,0.0504,0.0515,0.052,0.06,0.0621,0.0737,0.0705,0.0722,0.079,0.0793,0.0899,0.0912,0.0939,0.1055,0.1078,0.1075,0.1063,0.1231,0.123,0.1229,0.1244,0.1243,0.1242,0,0,0,0,0,0.05,0.0509,0.0519,0.053,0.0621,0.074,0.0761,0.0808,0.0795,0.0857,0.0901,0.0909,0.106,0.1066,0.1092,0.1091,0.1232,0.1231,0.1229,0.1244,0.1243,0.1242,0,0,0,0,0,0,0.0476,0.0518,0.053,0.0554,0.0653,0.0746,0.0786,0.083,0.092,0.0919,0.0958,0.0978,0.1054,0.1078,0.1081,0.1129,0.1126,0.113,0.1128,0.1128,0.1127,0.1153,0.1071,0,0,0,0,0,0.0468,0.0481,0.0563,0.0594,0.0628,0.0717,0.0769,0.0826,0.0904,0.0942,0.1006,0.1043,0.107,0.1106,0.1158,0.1233,0.1303,0.1226,0.1225,0.1225,0.1258,0.1363,0.1377,0.1224,0.1224,0.1224,0,0,0.0467,0.0492,0.0501,0.0589,0.0651,0.0739,0.0746,0.085,0.0912,0.095,0.1049,0.1077,0.1092,0.1148,0.1178,0.1171,0.1304,0.1223,0.1223,0.1258,0.1363,0.1379,0.1393,0.1223,0.1223,0.1223,0,0,0.0499,0.0495,0.0537,0.0623,0.0731,0.0776,0.0811,0.0936,0.0969,0.1087,0.1078,0.1124,0.1207,0.1207,0.1207,0.1246,0.1306,0.1223,0.1249,0.1349,0.1364,0.1378,0.1495,0.1519,0.1212,0.1212,0.1213,0,0.0509,0.0568,0.0581,0.0673,0.0726,0.0789,0.0883,0.0938,0.1088,0.1112,0.1115,0.121,0.1229,0.1255,0.1236,0.1251,0.1325,0.1254,0.1355,0.137,0.1384,0.15,0.1527,0.1213,0.1213,0.1213,0.1213,0,0.0589,0.0664,0.07,0.0799,0.0855,0.0964,0.1017,0.1093,0.1118,0.1166,0.1235,0.1276,0.133,0.1299,0.1282,0.1351,0.1379,0.1355,0.1369,0.1402,0.152,0.1548,0.1214,0.1214,0.1213,0.1213,0,0,0.0611,0.0727,0.0762,0.0824,0.094,0.1,0.1064,0.1143,0.1193,0.1278,0.1356,0.135,0.1381,0.1383,0.1369,0.1423,0.157,0.1427,0.1432,0.1566,0.1824,0.1747,0.1771,0.1571,0.1575,0.1579,0.187,0,0.0708,0.0852,0.0877,0.1025,0.1109,0.1146,0.119,0.1255,0.1301,0.14,0.1399,0.1482,0.1401,0.1454,0.1488,0.1553,0.1643,0.1496,0.1753,0.1761,0.1709,0.18,0.1605,0.184,0.1898,0.1903,0.1906,0,0.0839,0.0905,0.1037,0.1131,0.116,0.1227,0.1292,0.1356,0.1446,0.1497,0.1565,0.1606,0.168,0.1637,0.1783,0.1696,0.178,0.1824,0.1837,0.1787,0.1736,0.1812,0.1889,0.1954,0.195,0.1946,0.1943,0,0.0887,0.104,0.1114,0.1169,0.1264,0.1295,0.1323,0.1392,0.145,0.1598,0.1712,0.1768,0.1883,0.1947,0.1999,0.1933,0.2193,0.212,0.2146,0.2142,0.2039,0.2018,0.2299,0.2298,0.2298,0.2297,0.2296,0,0.1014,0.1107,0.1145,0.1216,0.1276,0.1323,0.1412,0.1459,0.1584,0.1689,0.1777,0.1925,0.1977,0.2104,0.211,0.221,0.2295,0.2202,0.2223,0.2034,0.2009,0.2141,0.2118,0.2308,0.2305,0.2303,0.2301,0,0.1112,0.1154,0.125,0.1309,0.1322,0.1361,0.1452,0.1543,0.1659,0.1833,0.191,0.2102,0.2264,0.2301,0.2454,0.2392,0.2469,0.2501,0.2274,0.2259,0.2336,0.2311,0.258,0.258,0.258,0.258,0.258,0,0.1173,0.1242,0.1289,0.1319,0.1353,0.142,0.1488,0.1574,0.1677,0.1935,0.204,0.2278,0.24,0.2579,0.2536,0.2575,0.2585,0.2437,0.225,0.2378,0.2372,0.2346,0.2321,0.2144,0.214,0.2137,0.2135,0,0.1279,0.1288,0.1329,0.1397,0.1454,0.1506,0.16,0.1665,0.1807,0.1958,0.2166,0.2288,0.2489,0.2445,0.2496,0.2464,0.238,0.2378,0.264,0.206,0.1978,0.1966,0.1956,0.2108,0.2111,0.2113,0.2114,0.2115,0.132,0.1352,0.1408,0.1447,0.1526,0.1571,0.1575,0.1687,0.1792,0.1919,0.2121,0.2231,0.2306,0.227,0.2233,0.2188,0.2318,0.2192,0.2198,0.2207,0.2062,0.1979,0.2087,0.2089,0.2092,0.2093,0.2095,0,0.1356,0.1404,0.1461,0.1482,0.1532,0.1588,0.1647,0.1611,0.1666,0.1833,0.1941,0.1854,0.1893,0.1968,0.1869,0.1866,0.1798,0.1788,0.1689,0.1718,0.1743,0.1568,0.1467,0.1465,0.1463,0.1461,0,0,0.1391,0.1418,0.1423,0.1461,0.1505,0.1507,0.1499,0.1452,0.151,0.1512,0.157,0.1766,0.1914,0.1668,0.1647,0.1558,0.1615,0.1489,0.1996,0.191,0.1932,0.1985,0.175,0,0,0,0,0]},{"header":{"parameterUnit":"m.s-1","parameterCategory":2,"la1":30.2991,"la2":30.254,"lo1":-89.0895,"lo2":-89.0444,"dy":0.0017,"dx":0.0017,"nx":28,"ny":28,"refTime":"2024-06-25T03:00:00:Z","depth":"2","parameterNumber":3,"parameterNumberName":"V-component_of_CURRENTS"},"data":[0,0,0,0,0,0,0,0,0,0,0,0,0,0,0,0,0,0,0,0,0,0,0,0,0,0,0,0,0,0,0,0,0,0,0,0,0,0,0,0,0,0,0,0,0,0,0,0,0,0,0,0,0,0,0,0,0,0,-0.0482,-0.0482,0,-0.0467,-0.0466,-0.0466,-0.0491,-0.0492,-0.0494,-0.0495,-0.0425,-0.0422,-0.042,0,0,0,0,0,0,0,0,0,0,0,0,0,-0.0491,-0.0491,-0.0482,-0.0482,-0.0482,-0.0467,-0.0466,-0.0466,-0.0491,-0.0493,-0.0494,-0.0495,-0.0426,-0.0423,-0.0419,0,0,0,0,0,0,0,0,0,0,0,0,0,-0.048,-0.0491,-0.0482,-0.0494,-0.0496,-0.0467,-0.0466,-0.0466,-0.0491,-0.0493,-0.0494,-0.0496,-0.0427,-0.0423,-0.0419,-0.0359,0,0,-0.0406,-0.0404,0,0,0,0,0,0,0,0,-0.0481,-0.048,-0.0492,-0.0493,-0.0495,-0.0485,-0.0445,-0.0428,-0.049,-0.049,-0.0495,-0.0497,-0.044,-0.0435,-0.0426,-0.0356,-0.0353,-0.0405,-0.0403,-0.0401,-0.04,0,0,0,0,0,0,0,-0.0482,-0.048,-0.0473,-0.0492,-0.0494,-0.0487,-0.0488,-0.0441,-0.0453,-0.049,-0.0493,-0.0494,-0.0441,-0.043,-0.0424,-0.0352,-0.0405,-0.0402,-0.0399,-0.0397,-0.0272,-0.0271,0,0,0,0,0,0,-0.0489,-0.0481,-0.0474,-0.0473,-0.0495,-0.0486,-0.0486,-0.0484,-0.0455,-0.0453,-0.0493,-0.0496,-0.0437,-0.0429,-0.0422,-0.0372,-0.0401,-0.0397,-0.0394,-0.0273,-0.0272,-0.0271,0,0,0,0,0,0,-0.0489,-0.0488,-0.0474,-0.0479,-0.0477,-0.0485,-0.0482,-0.0483,-0.048,-0.0458,-0.0455,-0.049,-0.0438,-0.0428,-0.0387,-0.0369,-0.0395,-0.0391,-0.0274,-0.0272,-0.0271,-0.0257,0,0,0,0,0,0,-0.0489,-0.0488,-0.0487,-0.0479,-0.0477,-0.0458,-0.0481,-0.0482,-0.048,-0.0483,-0.0454,-0.0449,-0.0438,-0.0394,-0.0383,-0.0363,-0.0388,-0.0275,-0.0273,-0.0272,-0.0258,-0.0256,-0.0253,0,0,0,0,0,-0.049,-0.0477,-0.0487,-0.0487,-0.0477,-0.0457,-0.0455,-0.0464,-0.0478,-0.0468,-0.0455,-0.0451,-0.0378,-0.0389,-0.0377,-0.0355,-0.0275,-0.0273,-0.0272,-0.026,-0.0256,-0.0253,0,0,0,0,0,0,-0.0476,-0.0478,-0.049,-0.0478,-0.0472,-0.0463,-0.0459,-0.046,-0.0441,-0.0446,-0.043,-0.0422,-0.0385,-0.0368,-0.0381,-0.0317,-0.0329,-0.0325,-0.0324,-0.032,-0.0318,-0.0295,-0.0384,0,0,0,0,0,-0.0474,-0.047,-0.0468,-0.046,-0.046,-0.0459,-0.0453,-0.0455,-0.044,-0.0435,-0.0416,-0.0393,-0.0364,-0.0343,-0.0316,-0.0266,-0.0262,-0.0249,-0.0246,-0.0244,-0.0217,-0.0212,-0.0207,-0.0265,-0.0265,-0.0265,0,0,-0.0467,-0.0469,-0.0467,-0.0458,-0.0459,-0.0439,-0.0459,-0.0448,-0.0421,-0.0425,-0.0386,-0.038,-0.035,-0.0309,-0.029,-0.0293,-0.0228,-0.0242,-0.024,-0.0214,-0.021,-0.0204,-0.0199,-0.0264,-0.0265,-0.0265,0,0,-0.0446,-0.0455,-0.0445,-0.0437,-0.0434,-0.0426,-0.0423,-0.0411,-0.0401,-0.0363,-0.0365,-0.0344,-0.0297,-0.0273,-0.0254,-0.0213,-0.0219,-0.0214,-0.0171,-0.0167,-0.0162,-0.0158,-0.0161,-0.0157,-0.0208,-0.0208,-0.0208,0,-0.0441,-0.0421,-0.0437,-0.0421,-0.0403,-0.0419,-0.0387,-0.0374,-0.0347,-0.0322,-0.0351,-0.0284,-0.0275,-0.0207,-0.0207,-0.0204,-0.0209,-0.0188,-0.0164,-0.016,-0.0155,-0.0159,-0.0155,-0.0207,-0.0207,-0.0207,-0.0207,0,-0.0407,-0.0391,-0.0383,-0.0368,-0.0351,-0.0326,-0.0313,-0.0284,-0.0282,-0.0273,-0.0222,-0.0215,-0.0171,-0.0178,-0.0179,-0.0133,-0.0151,-0.0169,-0.0174,-0.0148,-0.0154,-0.015,-0.0205,-0.0206,-0.0206,-0.0206,0,0,-0.0395,-0.0362,-0.0364,-0.0329,-0.0314,-0.0286,-0.0242,-0.0192,-0.0142,-0.015,-0.0083,-0.0073,-0.0085,-0.0063,-0.0068,-0.007,-0.0066,-0.0105,-0.0106,-0.011,-0.0064,-0.0149,-0.0153,-0.0089,-0.0088,-0.0087,-0.0087,0,-0.0361,-0.0303,-0.0302,-0.0235,-0.0193,-0.0181,-0.0132,-0.0094,-0.0068,-0.0011,-0.0018,0.0036,-0.0036,-0.0002,-0.0025,-0.0053,-0.0051,-0.0064,-0.0085,-0.0085,-0.0165,-0.0149,-0.0152,-0.0158,-0.0083,-0.0082,-0.0081,0,-0.0321,-0.0283,-0.0207,-0.0131,-0.0116,-0.0078,0.0021,0.0062,0.0118,0.0147,0.0173,0.0164,0.0173,0.0113,0.006,0.0049,0.0007,-0.0029,-0.0031,-0.0104,-0.0161,-0.0168,-0.0154,-0.0074,-0.0075,-0.0075,-0.0076,0,-0.0265,-0.0209,-0.0135,-0.0112,-0.0041,0.0011,0.0048,0.0112,0.0179,0.0261,0.0336,0.0296,0.0334,0.0239,0.0124,0.0104,0.0055,0.0022,-0.0084,-0.0091,-0.009,-0.0099,0.0021,0.0021,0.0021,0.0021,0.0021,0,-0.0202,-0.0143,-0.0098,-0.0049,0.0045,0.0069,0.0187,0.0231,0.032,0.0417,0.0422,0.051,0.0371,0.0315,0.0175,0.0035,0.0089,-0.0063,-0.0091,-0.0089,-0.0098,-0.0019,-0.0023,0.0021,0.0021,0.0021,0.0021,0,-0.013,-0.0108,-0.0013,0.0059,0.0083,0.0154,0.0266,0.0362,0.0445,0.0588,0.063,0.0674,0.06,0.0434,0.0295,0.0137,-0.0006,-0.005,-0.0052,-0.0082,-0.0162,-0.0165,-0.0164,-0.0167,-0.0169,-0.0171,-0.0173,0,-0.0081,-0.0025,0.0062,0.0113,0.0152,0.0255,0.0339,0.042,0.0521,0.0689,0.0766,0.0776,0.0756,0.0503,0.0238,-0.0024,-0.0012,-0.0163,-0.0202,-0.015,-0.0178,-0.0177,-0.0178,-0.0192,-0.0193,-0.0195,-0.0196,0,0.0011,0.0037,0.01,0.0209,0.0296,0.0395,0.0506,0.0579,0.0695,0.0815,0.0935,0.0929,0.0756,0.0483,0.0138,-0.0036,-0.015,-0.0202,-0.0116,-0.0166,-0.0182,-0.0208,-0.0206,-0.0208,-0.0207,-0.0206,-0.0206,-0.0205,0.0054,0.0106,0.0185,0.0279,0.0408,0.05,0.0568,0.0679,0.0789,0.0912,0.0959,0.0989,0.0751,0.029,0.002,-0.023,-0.0226,-0.0322,-0.0314,-0.0305,-0.033,-0.0352,-0.0414,-0.0414,-0.0414,-0.0414,-0.0414,0,0.0084,0.0137,0.0245,0.0339,0.0475,0.0539,0.0673,0.0737,0.0839,0.0937,0.1006,0.0807,0.0527,0.0302,-0.0094,-0.0366,-0.0354,-0.0422,-0.0342,-0.0331,-0.0321,-0.0343,-0.0432,-0.0432,-0.0432,-0.0432,0,0,0.0087,0.0148,0.019,0.0356,0.0463,0.0625,0.0688,0.0792,0.0899,0.092,0.0952,0.0914,0.0636,0.0351,0.0002,-0.0193,-0.0193,-0.0237,-0.0209,-0.0067,-0.0052,-0.0268,-0.0292,0,0,0,0,0]}],[{"header":{"parameterUnit":"m.s-1","parameterCategory":2,"la1":30.2991,"la2":30.254,"lo1":-89.0895,"lo2":-89.0444,"dy":0.0017,"dx":0.0017,"nx":28,"ny":28,"refTime":"2024-06-25T03:00:00:Z","depth":"4","parameterNumber":2,"parameterNumberName":"U-component_of_CURRENTS"},"data":[0,0,0,0,0,0,0,0,0,0,0,0,0,0,0,0,0,0,0,0,0,0,0,0,0,0,0,0,0,0,0,0,0,0,0,0,0,0,0,0,0,0,0,0,0,0,0,0,0,0,0,0,0,0,0,0,0,0,0.0262,0.0262,0,0.0282,0.0282,0.0282,0.0322,0.0323,0.0323,0.0324,0.0356,0.0356,0.0356,0,0,0,0,0,0,0,0,0,0,0,0,0,0.0256,0.0256,0.0262,0.0262,0.0263,0.0282,0.0282,0.0282,0.0322,0.0323,0.0324,0.0324,0.0356,0.0356,0.0356,0,0,0,0,0,0,0,0,0,0,0,0,0,0.0265,0.0256,0.0262,0.0285,0.0287,0.0282,0.0282,0.0282,0.0321,0.0323,0.0324,0.0325,0.0356,0.0356,0.0356,0.0334,0,0,0.0357,0.0357,0,0,0,0,0,0,0,0,0.0265,0.0266,0.0281,0.0283,0.0286,0.0301,0.0292,0.03,0.0321,0.0308,0.0324,0.0325,0.0338,0.034,0.034,0.0335,0.0336,0.0357,0.0357,0.0357,0.0357,0,0,0,0,0,0,0,0.0264,0.0265,0.027,0.0281,0.0284,0.0293,0.0296,0.0293,0.0316,0.0309,0.0312,0.0314,0.034,0.034,0.0341,0.0337,0.0357,0.0357,0.0357,0.0357,0.0399,0.04,0,0,0,0,0,0,0.0261,0.0264,0.0269,0.027,0.0278,0.0292,0.0295,0.0294,0.0316,0.032,0.0313,0.0316,0.0339,0.0341,0.0343,0.0393,0.0357,0.0357,0.0357,0.0398,0.04,0.0401,0,0,0,0,0,0,0.026,0.0261,0.0268,0.0268,0.027,0.0291,0.029,0.0294,0.032,0.0319,0.0324,0.0337,0.034,0.0343,0.037,0.0392,0.0357,0.0358,0.0397,0.0399,0.04,0.0444,0,0,0,0,0,0,0.026,0.026,0.0265,0.0268,0.027,0.0278,0.0289,0.0294,0.0318,0.0322,0.034,0.0343,0.0341,0.037,0.037,0.0391,0.0358,0.0396,0.0398,0.04,0.0441,0.0447,0.0452,0,0,0,0,0,0.026,0.026,0.0264,0.0266,0.0273,0.0278,0.0281,0.0299,0.0318,0.0328,0.0351,0.0344,0.0382,0.0371,0.0371,0.0392,0.0395,0.0397,0.04,0.0439,0.0446,0.0452,0,0,0,0,0,0,0.026,0.0264,0.0269,0.0271,0.028,0.0286,0.0295,0.0311,0.0335,0.035,0.0354,0.0358,0.039,0.0384,0.0372,0.0411,0.0388,0.0391,0.0418,0.0424,0.0429,0.0461,0.0358,0,0,0,0,0,0.026,0.0263,0.0268,0.0271,0.0276,0.029,0.0298,0.0315,0.0333,0.0346,0.0362,0.038,0.0393,0.0406,0.0413,0.0431,0.0456,0.0446,0.0451,0.0456,0.0482,0.055,0.0565,0.0408,0.0408,0.0408,0,0,0.0259,0.0263,0.0265,0.0272,0.028,0.0296,0.0299,0.032,0.0349,0.0344,0.0393,0.0398,0.0402,0.0429,0.0442,0.0431,0.0508,0.0459,0.0462,0.0487,0.0555,0.057,0.0584,0.041,0.041,0.0409,0,0,0.0262,0.0265,0.0271,0.0282,0.0301,0.0312,0.0324,0.0346,0.0373,0.0408,0.0418,0.0446,0.046,0.0477,0.0483,0.0521,0.0533,0.0517,0.0571,0.0636,0.065,0.0663,0.0695,0.071,0.0521,0.0521,0.0521,0,0.0264,0.0275,0.0274,0.0289,0.0309,0.0324,0.035,0.037,0.0406,0.0435,0.0434,0.0493,0.0488,0.0536,0.0549,0.0534,0.0568,0.0544,0.0645,0.0659,0.0671,0.0701,0.0717,0.0523,0.0523,0.0523,0.0522,0,0.0273,0.029,0.0296,0.0322,0.0342,0.0366,0.0395,0.0429,0.0463,0.0487,0.0551,0.0559,0.0604,0.0594,0.0583,0.0664,0.0656,0.0643,0.0632,0.069,0.0716,0.0733,0.0527,0.0526,0.0525,0.0524,0,0,0.0254,0.0296,0.0301,0.0335,0.037,0.0394,0.0441,0.0491,0.0546,0.0579,0.0651,0.0672,0.0696,0.0707,0.0703,0.075,0.0843,0.0741,0.0743,0.0778,0.0982,0.0901,0.0911,0.0859,0.0862,0.0865,0.0958,0,0.0266,0.0309,0.0329,0.0389,0.0418,0.0456,0.0501,0.0553,0.0601,0.0669,0.0698,0.0756,0.0734,0.0766,0.0816,0.0845,0.0893,0.0819,0.0918,0.092,0.0847,0.093,0.0877,0.097,0.0974,0.0977,0.0979,0,0.0267,0.0303,0.0365,0.0444,0.0462,0.0508,0.0606,0.0647,0.0725,0.0763,0.0833,0.0861,0.0941,0.0907,0.1022,0.0983,0.0998,0.1007,0.1011,0.094,0.0872,0.0906,0.1008,0.1006,0.1004,0.1002,0.1,0,0.026,0.033,0.0393,0.0419,0.0502,0.0559,0.0606,0.0685,0.0741,0.0838,0.0897,0.0984,0.1041,0.1104,0.1132,0.1098,0.1245,0.1193,0.113,0.1123,0.1146,0.1132,0.128,0.128,0.128,0.128,0.128,0,0.0263,0.0309,0.0409,0.0442,0.0534,0.0585,0.069,0.0738,0.083,0.0894,0.0961,0.1028,0.11,0.1179,0.1193,0.1228,0.1305,0.1171,0.1161,0.1156,0.1142,0.1156,0.114,0.1283,0.1282,0.1282,0.1281,0,0.0237,0.0297,0.0375,0.0489,0.0534,0.0601,0.0726,0.0785,0.0878,0.097,0.1007,0.1099,0.1193,0.1255,0.1338,0.1294,0.1333,0.1315,0.1315,0.1297,0.1146,0.1131,0.1264,0.1263,0.1261,0.126,0.1259,0,0.0226,0.0261,0.0403,0.0457,0.0518,0.0627,0.0686,0.0792,0.0849,0.0996,0.1026,0.1151,0.1202,0.129,0.1324,0.1374,0.1338,0.1339,0.1237,0.1177,0.1154,0.1141,0.1129,0.1257,0.1257,0.1256,0.1256,0,0.0193,0.0252,0.0322,0.0429,0.0518,0.0611,0.0706,0.0762,0.0872,0.0967,0.1055,0.1111,0.1199,0.1249,0.1301,0.1316,0.1337,0.1323,0.1324,0.1228,0.1169,0.1145,0.1135,0.1251,0.1252,0.1252,0.1252,0,0.0166,0.0208,0.0299,0.0393,0.0489,0.0566,0.064,0.073,0.0813,0.0973,0.099,0.1114,0.1194,0.1218,0.1266,0.1289,0.1244,0.118,0.1187,0.1193,0.1121,0.1033,0.1097,0,0,0,0,0,0.0133,0.0172,0.0245,0.0355,0.0441,0.0499,0.0628,0.0699,0.0825,0.0871,0.094,0.1021,0.1091,0.1139,0.1147,0.1196,0.123,0.1193,0.1154,0.1224,0.123,0.1148,0,0,0,0,0,0,0.0117,0.0176,0.0221,0.0291,0.035,0.0442,0.0527,0.0617,0.0667,0.0796,0.0857,0.0931,0.1027,0.1079,0.1115,0.1128,0.1079,0.1261,0.1258,0.1221,0.1226,0.1231,0.1148,0,0,0,0,0]},{"header":{"parameterUnit":"m.s-1","parameterCategory":2,"la1":30.2991,"la2":30.254,"lo1":-89.0895,"lo2":-89.0444,"dy":0.0017,"dx":0.0017,"nx":28,"ny":28,"refTime":"2024-06-25T03:00:00:Z","depth":"4","parameterNumber":3,"parameterNumberName":"V-component_of_CURRENTS"},"data":[0,0,0,0,0,0,0,0,0,0,0,0,0,0,0,0,0,0,0,0,0,0,0,0,0,0,0,0,0,0,0,0,0,0,0,0,0,0,0,0,0,0,0,0,0,0,0,0,0,0,0,0,0,0,0,0,0,0,0.0303,0.0303,0,0.0303,0.0303,0.0303,0.0283,0.0282,0.0282,0.0282,0.018,0.0178,0.0175,0,0,0,0,0,0,0,0,0,0,0,0,0,0.0269,0.0269,0.0303,0.0303,0.0303,0.0303,0.0303,0.0302,0.0283,0.0282,0.0282,0.0281,0.0181,0.0178,0.0175,0,0,0,0,0,0,0,0,0,0,0,0,0,0.0277,0.027,0.0303,0.0294,0.0294,0.0303,0.0303,0.0302,0.0283,0.0282,0.0282,0.0281,0.0182,0.0178,0.0175,0.0166,0,0,0.0164,0.0163,0,0,0,0,0,0,0,0,0.0276,0.0278,0.0296,0.0295,0.0294,0.0293,0.0253,0.0252,0.0283,0.0286,0.0282,0.0281,0.021,0.0204,0.0205,0.0161,0.0156,0.0164,0.0162,0.016,0.0159,0,0,0,0,0,0,0,0.0276,0.0277,0.0302,0.0296,0.0295,0.0284,0.0285,0.0253,0.0248,0.0286,0.0284,0.0286,0.0208,0.0208,0.0202,0.0155,0.0164,0.0161,0.0159,0.0157,0.0007,0.0005,0,0,0,0,0,0,0.028,0.0277,0.0302,0.0302,0.0285,0.0285,0.0286,0.0293,0.0251,0.0245,0.0287,0.0285,0.0215,0.0206,0.0198,0.0133,0.016,0.0157,0.0155,0.0009,0.0006,0.0004,0,0,0,0,0,0,0.0279,0.0282,0.0302,0.029,0.0292,0.0287,0.0295,0.0294,0.0291,0.0253,0.0245,0.0286,0.0214,0.0203,0.0157,0.013,0.0155,0.0152,0.0011,0.0008,0.0005,0.0034,0,0,0,0,0,0,0.0278,0.0282,0.0291,0.0291,0.0293,0.0311,0.0296,0.0294,0.0294,0.0292,0.0249,0.024,0.0213,0.0163,0.0154,0.0126,0.0149,0.0013,0.0009,0.0006,0.0035,0.0032,0.003,0,0,0,0,0,0.0277,0.0297,0.0292,0.0295,0.0305,0.0312,0.0312,0.0305,0.0294,0.0299,0.0257,0.0241,0.0132,0.0159,0.0149,0.0119,0.0015,0.0011,0.0006,0.0037,0.0033,0.003,0,0,0,0,0,0,0.029,0.0297,0.0291,0.0312,0.0312,0.0309,0.0319,0.0307,0.0282,0.0274,0.0231,0.0218,0.016,0.0135,0.0165,0.006,0.0065,0.0058,0.0091,0.0087,0.0085,0.006,0.0147,0,0,0,0,0,0.0296,0.0312,0.0311,0.0328,0.033,0.0322,0.0324,0.0317,0.0296,0.0286,0.0248,0.0194,0.0135,0.0111,0.0061,0.0021,-0.0003,-0.0013,-0.0016,-0.0018,-0.0049,-0.008,-0.0087,-0.001,-0.001,-0.001,0,0,0.0308,0.0313,0.0323,0.0331,0.0332,0.0328,0.0322,0.033,0.0305,0.0276,0.023,0.0186,0.012,0.0064,0.0034,0.0042,-0.0052,-0.0023,-0.0024,-0.0055,-0.0085,-0.0092,-0.0098,-0.0013,-0.0012,-0.0012,0,0,0.0332,0.0341,0.0357,0.0354,0.0356,0.0344,0.0344,0.0333,0.0309,0.0267,0.0222,0.0158,0.0095,0.0031,-0.0009,-0.006,-0.0068,-0.007,-0.0097,-0.0125,-0.0131,-0.0137,-0.0163,-0.0171,-0.0067,-0.0067,-0.0067,0,0.0342,0.0352,0.0362,0.0367,0.0352,0.0348,0.0337,0.032,0.0286,0.0239,0.025,0.0108,0.0065,-0.0038,-0.006,-0.0068,-0.0074,-0.0068,-0.0125,-0.0132,-0.0138,-0.0164,-0.0173,-0.0066,-0.0066,-0.0066,-0.0066,0,0.0367,0.0368,0.0378,0.0369,0.036,0.0356,0.0325,0.0295,0.026,0.022,0.0121,0.007,-0.0023,-0.0042,-0.0068,-0.0148,-0.0135,-0.012,-0.0105,-0.0143,-0.0169,-0.0179,-0.0065,-0.0065,-0.0065,-0.0065,0,0,0.0385,0.0392,0.039,0.0367,0.0352,0.0337,0.0291,0.0224,0.0166,0.0128,0.0048,-0.0055,-0.0082,-0.0133,-0.0162,-0.0191,-0.0231,-0.017,-0.0171,-0.0177,-0.0282,-0.0252,-0.026,-0.0201,-0.0203,-0.0205,-0.0276,0,0.0387,0.0387,0.0383,0.0349,0.0332,0.0293,0.0243,0.0179,0.0122,0.0051,-0.0023,-0.0097,-0.0113,-0.0146,-0.0183,-0.0217,-0.0259,-0.0214,-0.0265,-0.0268,-0.0219,-0.0272,-0.0212,-0.0283,-0.0286,-0.0287,-0.0289,0,0.0387,0.0382,0.0362,0.0302,0.0289,0.0259,0.0149,0.0105,0.0005,-0.0035,-0.0116,-0.015,-0.0231,-0.021,-0.0303,-0.026,-0.0292,-0.0309,-0.0311,-0.0309,-0.0258,-0.0246,-0.0307,-0.0306,-0.0304,-0.0303,-0.0302,0,0.0362,0.0345,0.0319,0.0307,0.0258,0.0205,0.0156,0.0058,0.0009,-0.0089,-0.0111,-0.021,-0.0242,-0.029,-0.0329,-0.0311,-0.04,-0.0376,-0.0394,-0.0392,-0.0405,-0.0398,-0.0466,-0.0465,-0.0465,-0.0465,-0.0465,0,0.0337,0.0306,0.0303,0.0283,0.022,0.018,0.0095,0.0028,-0.0043,-0.0085,-0.0152,-0.0181,-0.0258,-0.0303,-0.0341,-0.0394,-0.0414,-0.043,-0.0419,-0.039,-0.0382,-0.0411,-0.0403,-0.0468,-0.0467,-0.0467,-0.0466,0,0.0286,0.0303,0.0264,0.0225,0.021,0.015,0.0086,0.0039,-0.003,-0.0073,-0.0089,-0.0171,-0.0229,-0.0299,-0.0384,-0.0408,-0.046,-0.0481,-0.0455,-0.0435,-0.0434,-0.0425,-0.0519,-0.0519,-0.0519,-0.0519,-0.0518,0,0.0245,0.0236,0.0226,0.0217,0.0193,0.013,0.0108,0.0043,0.0024,-0.0051,-0.0049,-0.0138,-0.0184,-0.028,-0.0368,-0.0462,-0.0472,-0.0504,-0.0487,-0.0466,-0.0445,-0.0436,-0.0427,-0.0518,-0.0518,-0.0518,-0.0518,0,0.0147,0.0168,0.0145,0.016,0.0146,0.0146,0.0114,0.0114,0.0069,0.0028,-0.0004,-0.008,-0.0161,-0.026,-0.0345,-0.0407,-0.0479,-0.0503,-0.0504,-0.0488,-0.0465,-0.0443,-0.0435,-0.0517,-0.0517,-0.0517,-0.0518,0,0.0059,0.0043,0.0059,0.0076,0.0089,0.0146,0.014,0.0145,0.0126,0.0081,0.0071,-0.0032,-0.011,-0.0234,-0.0299,-0.0369,-0.0389,-0.0395,-0.0402,-0.0404,-0.0346,-0.03,-0.0315,0,0,0,0,0,-0.0044,-0.0031,-0.0023,0.0017,0.0061,0.01,0.0141,0.0156,0.0156,0.0156,0.0113,0.0049,-0.0087,-0.0167,-0.023,-0.0311,-0.0414,-0.0389,-0.0426,-0.0514,-0.0514,-0.0463,0,0,0,0,0,0,-0.0118,-0.012,-0.0054,-0.0011,0.0037,0.0096,0.015,0.0173,0.0177,0.0159,0.0092,0.0039,-0.0094,-0.005,-0.0233,-0.0263,-0.029,-0.0464,-0.0465,-0.0513,-0.0514,-0.0515,-0.0461,0,0,0,0,0]}]]